Content
SEND FEEDBACK

Daily
Averages
Monthly
Summary
The Bahamas

ELEUTHERA, THE BAHAMAS


Home > Caribbean > The Bahamas
Elevation: 15 feet     Latitude: 25 17N     Longitude: 076 19W

WEATHER
 
SELECT A DAY
Number of Records: 162,579;   Date Range: 6/30/96 - 10/23/14
 
SHARE

PRINT THIS DATA

[ ← Previous Day ]
WEATHER ALMANAC - JANUARY 31, 2013
[ Next Day → ]
[ °C ]   °F
Weather ElementAverageHighLow
Temperature77 °F86 °F (1:00 pm)73 °F (7:00 am)
Dewpoint71.5 °F74 °F (1:00 pm)68 °F (6:00 pm)
Humidity82.1 %95 % (7:00 am)63 % (1:00 pm)
Barometer30.06 in30.12 in (10:00 pm)30.03 in (3:00 am)
Wind Speed6.4 mph16.1 mph (11:00 am)
Weather ElementAverage
Visibility6.9 mi
Wind DirectionSSW (191.8 °)

Weather ElementTotal
Precipitation---
Cooling Degree Days14.5 (Base 65)
Growing Degree Days29.5 (Base 50)
Averaged from 29 records on January 31, 2013
WEATHER CONDITIONS BREAKOUT
WIND DIRECTION BREAKOUT
WEATHER BY HOUR - JANUARY 31, 2013
[ °C ]   °F
Local TimeTemperatureDewpointHumidityBarometerVisibilityWind DirectionWind SpeedGust SpeedPrecipitationEventsConditions
1:00 AM74.0 °F71.0 °F88 %30.06 in8.0 miSSE (150°)4.6 mphScattered Clouds
1:00 AM73.4 °F71.6 °F94 %30.06 in6.2 miSSE (150°)4.6 mphPartly Cloudy
2:00 AM73.4 °F69.8 °F88 %30.05 in6.2 miSSE (160°)4.6 mphPartly Cloudy
3:00 AM73.4 °F69.8 °F88 %30.03 in6.2 miSSE (150°)6.9 mphPartly Cloudy
4:00 AM74.0 °F71.0 °F88 %30.03 in8.0 miSSE (150°)6.9 mphScattered Clouds
4:00 AM73.4 °F71.6 °F94 %30.03 in6.2 miSSE (150°)6.9 mphPartly Cloudy
6:00 AM73.4 °F69.8 °F88 %30.03 in6.2 miSouth (170°)4.6 mphPartly Cloudy
7:00 AM73.4 °F71.6 °F94 %30.04 in6.2 miSouth (180°)3.5 mphPartly Cloudy
7:00 AM73.0 °F72.0 °F95 %30.05 in8.0 miSouth (180°)3.5 mphScattered Clouds
8:00 AM73.4 °F69.8 °F88 %30.07 in6.2 miSouth (170°)5.8 mphPartly Cloudy
9:00 AM77.0 °F71.6 °F83 %30.09 in6.2 miSouth (190°)9.2 mphPartly Cloudy
10:00 AM81.0 °F73.0 °F70 %30.10 in9.0 miSouth (190°)9.2 mphScattered Clouds
10:00 AM80.6 °F73.4 °F79 %30.10 in6.2 miSouth (190°)9.2 mphPartly Cloudy
11:00 AM80.6 °F71.6 °F74 %30.10 in6.2 miSouth (180°)16.1 mphPartly Cloudy
1:00 PM86.0 °F73.4 °F66 %30.06 in6.2 miSouth (170°)12.7 mphPartly Cloudy
1:00 PM85.0 °F74.0 °F63 %30.06 in9.0 miSouth (170°)12.7 mphScattered Clouds
2:00 PM82.4 °F71.6 °F70 %30.06 in6.2 miSSW (210°)11.5 mphPartly Cloudy
3:00 PM82.4 °F71.6 °F70 %30.03 in6.2 miSouth (180°)9.2 mphPartly Cloudy
4:00 PM83.0 °F73.0 °F64 %30.03 in9.0 miSouth (190°)5.8 mphScattered Clouds
4:00 PM82.4 °F73.4 °F74 %30.03 in6.2 miSouth (190°)5.8 mphPartly Cloudy
5:00 PM78.8 °F71.6 °F78 %30.05 in6.2 miNorthMostly Cloudy
6:00 PM75.2 °F68.0 °F78 %30.06 in6.2 miNW (310°)3.5 mphMostly Cloudy
7:00 PM75.2 °F71.6 °F89 %30.07 in6.2 miCalmPartly Cloudy
7:00 PM75.0 °F72.0 °F87 %9.0 miCalmPartly Cloudy
8:00 PM75.2 °F69.8 °F83 %30.11 in6.2 miNW (320°)5.8 mphScattered Clouds
9:00 PM73.4 °F69.8 °F88 %30.11 in6.2 miWSW (250°)3.5 mphPartly Cloudy
10:00 PM74.0 °F9.0 miNNW (340°)4.6 mph
10:00 PM75.2 °F71.6 °F89 %30.12 in6.2 miNNW (340°)4.6 mphPartly Cloudy
11:00 PM73.4 °F69.8 °F88 %30.12 in6.2 miNNW (340°)4.6 mphMostly Cloudy
Hourly data recorded from MYEM, located miles away from Eleuthera, The Bahamas







STORIES FROM OUR PARTNERS